• Join FlightAware (Why Join?)
  • Login
  • US Flag 
05:40PM EST


 

Airport Tracker/Info


-or-


 

Live Flight TrackerFlight Track Log ✈ UAL6012 ✈ 26-Apr-2013 ✈ KIAD - KTYS

Flight Track Log - Related Links

Times and Time Zones

All times are in EDT time to prevent confusion due to time zone crossing. See the UAL6012 flight status page for this flight to view local times or setup timezone preferences in your user account.

Time Position Orientation Groundspeed Altitude Reporting Facility
EDT Latitude Longitude Course Direction KTS MPH feet Rate Location/Type
05:40PM 38.9167 -77.5500 234° Southwest 215 247 2,900  Level Potomac TRACON
05:41PM 38.8833 -77.6333 243° Southwest 256 295 5,100 1,980 Climbing Potomac TRACON
05:42PM 38.8167 -77.6833 210° Southwest 254 292 6,900 1,320 Climbing Potomac TRACON
05:42PM 38.7658 -77.6925 188° South 264 304 7,400 1,440 Climbing Washington Center
05:43PM 38.5190 -77.7024 210° Southwest  Level FlightAware Approximate
05:43PM 38.6906 -77.7008 185° South 282 325 9,400  Level Washington Center
05:44PM 38.4631 -77.7896 234° Southwest  Level FlightAware Approximate
05:44PM 38.6028 -77.7169 188° South 318 366 10,500  Level Washington Center
05:45PM 38.4085 -77.8851 234° Southwest  Level FlightAware Approximate
05:45PM 38.5083 -77.7489 195° South 368 423 11,700  Level Washington Center
05:46PM 38.4483 -77.8372 229° Southwest 367 422 13,500 1,440 Climbing Washington Center
05:47PM 38.3942 -77.9414 236° Southwest 367 422 14,700 1,260 Climbing Washington Center
05:48PM 38.3400 -78.0483 237° Southwest 367 422 16,000 1,320 Climbing Washington Center
05:49PM 38.2836 -78.1522 235° Southwest 362 417 17,300 960 Climbing Washington Center
05:50PM 38.2269 -78.2614 237° Southwest 368 423 18,000 780 Climbing Washington Center
05:51PM 38.1703 -78.3703 237° Southwest 373 429 19,000 1,020 Climbing Washington Center
05:52PM 38.1175 -78.4844 240° Southwest 373 429 20,100 900 Climbing Washington Center
05:53PM 38.0817 -78.5911 247° West 369 425 20,800 660 Climbing Washington Center
05:54PM 38.0389 -78.7161 247° West 382 440 21,500 780 Climbing Washington Center
05:55PM 37.9958 -78.8381 246° West 388 447 22,500 960 Climbing Washington Center
05:56PM 37.9550 -78.9628 247° West 388 447 23,500 1,020 Climbing Washington Center
05:57PM 37.9072 -79.1003 246° West 388 447 24,600 1,020 Climbing Washington Center
05:58PM 37.8517 -79.2158 239° Southwest 388 447 25,600 960 Climbing Washington Center
05:59PM 37.7961 -79.3264 238° Southwest 388 447 26,600 960 Climbing Washington Center
06:00PM 37.7469 -79.4264 238° Southwest 383 441 27,600 1,020 Climbing Washington Center
06:01PM 37.6847 -79.5464 237° Southwest 377 434 28,700 1,020 Climbing Washington Center
06:02PM 37.6308 -79.6564 238° Southwest 377 434 29,700 1,020 Climbing Washington Center
06:03PM 37.5750 -79.7633 237° Southwest 377 434 30,800 960 Climbing Washington Center
06:04PM 37.5189 -79.8756 238° Southwest 383 441 31,700 900 Climbing Washington Center
06:07PM 37.3906 -80.1208 237° Southwest 379 436 34,000 660 Climbing Atlanta Center
06:08PM 37.3339 -80.2333 238° Southwest 379 436 34,000  Level Atlanta Center
06:09PM 37.2686 -80.3564 236° Southwest 384 442 34,000  Level Atlanta Center
06:10PM 37.2097 -80.4739 238° Southwest 389 448 34,000  Level Atlanta Center
06:11PM 37.1525 -80.5886 238° Southwest 394 453 34,000  Level Atlanta Center
06:12PM 37.0911 -80.7031 236° Southwest 400 460 34,000  Level Atlanta Center
06:13PM 37.0503 -80.8167 246° West 395 455 34,000  Level Atlanta Center
06:14PM 37.0053 -80.9356 245° Southwest 389 448 34,000  Level Atlanta Center
06:15PM 36.9606 -81.0619 246° West 389 448 34,000  Level Atlanta Center
06:16PM 36.9136 -81.1961 246° West 389 448 34,000 -480 Level Atlanta Center
06:17PM 36.8686 -81.3169 245° Southwest 389 448 33,100 -1,200 Descending Atlanta Center
06:18PM 36.8233 -81.4406 245° Southwest 389 448 31,700 -1,500 Descending Atlanta Center
06:19PM 36.7819 -81.5689 248° West 389 448 30,200 -1,500 Descending Atlanta Center
06:20PM 36.7344 -81.6972 245° Southwest 395 455 28,800 -1,200 Descending Atlanta Center
06:21PM 36.6869 -81.8253 245° Southwest 405 466 27,800 -1,020 Descending Atlanta Center
06:22PM 36.6369 -81.9561 245° Southwest 405 466 26,800 -960 Descending Atlanta Center
06:23PM 36.5911 -82.0867 246° West 413 475 25,900 -900 Descending Atlanta Center
06:24PM 36.5411 -82.2222 245° Southwest 426 490 25,000 -900 Descending Atlanta Center
06:25PM 36.4931 -82.3525 245° Southwest 418 481 24,100 -900 Descending Atlanta Center
06:26PM 36.4406 -82.4825 243° Southwest 418 481 23,200 -1,380 Descending Atlanta Center
06:27PM 36.3961 -82.6072 246° West 410 472 21,400 -2,040 Descending Atlanta Center
06:28PM 36.3494 -82.7317 245° Southwest 404 465 19,200 -1,920 Descending Atlanta Center
06:29PM 36.3050 -82.8511 245° Southwest 395 455 17,600 -1,980 Descending Atlanta Center
06:30PM 36.2600 -82.9675 244° Southwest 384 442 15,300 -2,040 Descending Atlanta Center
06:31PM 36.2233 -83.0658 245° Southwest 379 436 13,600 -1,860 Descending Atlanta Center
06:32PM 36.1825 -83.1719 245° Southwest 353 406 11,600 -1,320 Descending Atlanta Center
06:33PM 36.1414 -83.2803 245° Southwest 348 400 11,000 -300 Descending Atlanta Center
06:34PM 36.1025 -83.3833 245° Southwest 343 395 11,000 -360 Level Atlanta Center
06:35PM 36.0633 -83.4839 244° Southwest 338 389 10,300 -540 Descending Atlanta Center
06:36PM 36.0219 -83.5944 245° Southwest 328 377 10,000 -180 Descending Atlanta Center
06:37PM 35.9658 -83.6692 227° Southwest 315 362 10,000  Level Atlanta Center
06:38PM 35.9078 -83.7389 224° Southwest 305 351 10,000 -300 Level Atlanta Center
06:39PM 35.8536 -83.8081 226° Southwest 297 342 9,400 -1,800 Descending Atlanta Center
06:40PM 35.8078 -83.8722 229° Southwest 275 316 6,400 -2,160 Descending Atlanta Center
06:41PM 35.7642 -83.9286 226° Southwest 257 296 5,100 -1,320 Descending Atlanta Center
06:43PM 35.8000 -83.9833 219° Southwest  Level FlightAware Approximate
06:50PM 35.8110 -83.9940 219° Southwest  Level Estimated
06:51PM 35.8110 -83.9940 219° Southwest  Level Estimated